Regional Weather Roundup
Issued by NWS

Home | Current Version | Previous Version | Graphics & Text | Print | Product List | Glossary On
Versions: 1 2 3 4 5 6 7 8 9 10 11 12 13 14 15 16 17 18 19 20 21 22 23 24 25 26 27 28 29 30 31 32 33 34 35 36 37 38 39 40 41 42 43 44 45 46 47 48 49 50
000
ASUS43 KBIS 240810
RWRND
NORTH DAKOTA REGIONAL WEATHER ROUNDUP
NATIONAL WEATHER SERVICE EASTERN NORTH DAKOTA/GRAND FORKS ND
300 AM CDT THU MAY 24 2018

  NOTE: "FAIR" INDICATES FEW OR NO CLOUDS BELOW 12,000 FEET WITH NO
  SIGNIFICANT WEATHER AND/OR OBSTRUCTIONS TO VISIBILITY.

NDZ001>003-009>011-017-240900-
...NORTHWEST NORTH DAKOTA...

CITY           SKY/WX    TMP DP  RH WIND       PRES   REMARKS
WILLISTON      FAIR      58  57  97 CALM      29.75F
MINOT          FAIR      66  63  90 SW3       29.78F
MINOT AFB      FAIR      62  62 100 CALM      29.77F
$$

NDZ018>021-031>035-040>046-240900-
...SOUTHWEST NORTH DAKOTA...

CITY           SKY/WX    TMP DP  RH WIND       PRES   REMARKS
BISMARCK       TSTM      67  60  78 SW24G35   29.81S
DICKINSON      CLOUDY    60  56  86 CALM      29.81F
GARRISON         N/A     60  59  96 CALM      29.79F
HETTINGER      CLOUDY    61  51  70 SE8       29.86R
$$

NDZ004>008-012>016-024-026-027-054-240900-
...NORTHEAST NORTH DAKOTA...

CITY           SKY/WX    TMP DP  RH WIND       PRES   REMARKS
GRAND FORKS    FAIR      66  61  84 SE8       29.85F
GRAND FORKS AF FAIR      65  61  87 SE8       29.87F
DEVILS LAKE    CLOUDY    65  62  90 SE10      29.85F
$$

NDZ022-023-025-028>030-036>039-047>053-240900-
...SOUTHEAST NORTH DAKOTA...

CITY           SKY/WX    TMP DP  RH WIND       PRES   REMARKS
JAMESTOWN      FAIR      66  64  93 SE12      29.85S FOG
FARGO          FAIR      73  64  73 S16G26    29.86F
WAHPETON       FAIR      68  61  77 SE12      29.91S
$$




USA.gov is the U.S. government's official web portal to all federal, state and local government web resources and services.